This demonstration page uses our WeatherBlox Daily Observations layout. Learn more.

Left ArrowRight Arrow

Hourly Observations for January 1, 2022

Temp ( °F °C ) Dew Point ( °F °C ) Humidity (%) Winds ( mph kmh ) Pressure ( in mb ) Visibility ( mi km ) Precip ( " mm )
12:51 am 00:51 Cloudy 49 9.4 47 8.3 93 93 S 5 7 29.90 1013 7 11 0.00 0.00
1:04 am 01:04 Cloudy 48 9 46 8 94 94 S 5 7 29.89 1012 7 11 0.00 0.00
1:51 am 01:51 Cloudy with Mist and Fog 49 9.4 47 8.3 93 93 S 5 7 29.90 1012 6 10 0.00 0.00
1:58 am 01:58 Cloudy 49 9.4 47 8.3 93 93 S 3 6 29.90 1013 7 11 0.00 0.00
2:51 am 02:51 Cloudy 49 9.4 47 8.3 93 93 SSE 3 6 29.88 1012 9 14 0.00 0.00
3:51 am 03:51 Cloudy 49 9.4 47 8.3 93 93 Calm 29.85 1011 7 11 0.00 0.00
4:51 am 04:51 Mostly Cloudy 50 10 47 8.3 89 89 Calm 29.85 1011 8 13 0.01 0.25
5:51 am 05:51 Cloudy 50 10 48 8.9 93 93 Calm 29.82 1010 9 14 0.00 0.00
6:51 am 06:51 Cloudy with Light Rain 50 10 47 8.3 89 89 Calm 29.82 1010 6 10 0.00 0.00
7:16 am 07:16 Cloudy with Light Rain 50 10 48 8.9 93 93 Calm 29.83 1010 1 2 0.01 0.25
7:51 am 07:51 Cloudy with Light Rain 50 10 48 8.9 93 93 S 5 7 29.80 1009 1 2 0.07 1.78
8:51 am 08:51 Cloudy with Light Rain 50 10 49 9.4 96 96 SW 5 7 29.81 1010 1 2 0.00 0.00
8:58 am 08:58 Cloudy with Light Rain 51 10.6 49 9.4 92 92 W 5 7 29.82 1010 5 8 0.00 0.00
9:51 am 09:51 Cloudy with Light Rain 50 10 49 9.4 96 96 SW 3 6 29.83 1010 5 8 0.00 0.00
10:51 am 10:51 Cloudy with Light Rain 52 11.1 50 10 93 93 SSW 7 11 29.79 1009 3 5 0.01 0.25
11:51 am 11:51 Cloudy with Light Rain 53 11.7 51 10.6 93 93 SW 9 15 29.77 1008 3 5 0.00 0.00
11:58 am 11:58 Cloudy with Light Rain 53 11.7 51 10.6 93 93 SW 9 15 29.77 1008 3 5 0.00 0.00
12:51 pm 12:51 Cloudy with Light Rain 54 12.2 52 11.1 93 93 SSW 5 7 29.75 1007 3 5 0.01 0.25
1:51 pm 13:51 Cloudy with Light Rain 54 12.2 53 11.7 97 97 S 3 6 29.72 1007 5 8 0.00 0.00
2:51 pm 14:51 Cloudy with Light Rain 54 12.2 53 11.7 97 97 SSE 6 9 29.70 1006 5 8 0.00 0.00
3:51 pm 15:51 Cloudy with Light Rain 54 12.2 53 11.7 97 97 SSW 5 7 29.70 1006 5 8 0.00 0.00
4:51 pm 16:51 Cloudy with Light Rain 55 12.8 53 11.7 93 93 Calm 29.70 1006 3 5 0.00 0.00
5:51 pm 17:51 Cloudy with Light Rain 54 12.2 52 11.1 93 93 Calm 29.70 1006 3 5 0.01 0.25
6:07 pm 18:07 Cloudy with Light Rain 55 12.8 53 11.7 93 93 Calm 29.71 1006 3 5 0.02 0.51
6:51 pm 18:51 Cloudy with Light Rain 54 12.2 53 11.7 97 97 Calm 29.70 1006 3 5 0.05 1.27
7:51 pm 19:51 Cloudy with Light Rain 54 12.2 52 11.1 93 93 E 3 6 29.67 1005 3 5 0.04 1.02
8:05 pm 20:05 Cloudy with Light Rain 54 12.2 52 11.1 93 93 undefined N/A 29.67 1005 4 6 0.01 0.25
8:51 pm 20:51 Cloudy with Light Rain 53 11.7 51 10.6 93 93 ENE 5 7 29.65 1004 4 6 0.07 1.78
9:51 pm 21:51 Cloudy with Heavy Rain 53 11.7 51 10.6 93 93 NNE 7 11 29.61 1003 4 6 0.17 4.32
10:51 pm 22:51 Cloudy with Light Rain 52 11.1 51 10.6 97 97 NE 5 7 29.59 1002 6 10 0.33 8.38
11:51 pm 23:51 Cloudy with Light Rain 52 11.1 50 10 93 93 NNE 5 7 29.55 1001 10 16 0.03 0.76
11:58 pm 23:58 Cloudy with Light Rain 52 11.1 50 10 93 93 N 5 7 29.56 1001 10 16 0.00 0.00

Powered by AerisWeather